CFG6ZC EDDM-LIEO

Flight info

Callsign CFG6ZC
Flight time 1h 19m
Altitude 33000
Route TURBU7N TURBU Y107 TOBSO DCT BAKOR DCT VESAL DCT LAMPO DCT ROKIB DCT VIC DCT KOPER DCT LUMAV DCT GOXIN DCT OGAPU DCT BIKTU DCT NUKNI DCT MAMAR DCT PIDUL DCT GITRI
Aircraft A21N/M-SBDE3FGHIJ1J4J7LORVWXYZ/SB2D1G1

Departure

Time 2026-05-05 08:32
Airport Munich Airport (EDDM)

Arrival

Time 2026-05-05 09:51
Airport Olbia Costa Smeralda Airport (LIEO)
Time Latitude Longitude Altitude Speed Heading
2026-05-05 07:47 48.34948 11.78374 1491 ft 0 kts 83°
2026-05-05 08:19 48.34947 11.78354 1478 ft 4 kts 83°
2026-05-05 08:19 48.34944 11.78315 1477 ft 3 kts 83°
2026-05-05 08:19 48.34940 11.78285 1479 ft 4 kts 54°
2026-05-05 08:19 48.34922 11.78271 1479 ft 3 kts 353°
2026-05-05 08:20 48.34901 11.78275 1486 ft 1 kts 353°
2026-05-05 08:23 48.34910 11.78273 1491 ft 4 kts 353°
2026-05-05 08:24 48.34960 11.78265 1487 ft 10 kts 354°
2026-05-05 08:24 48.35030 11.78254 1487 ft 9 kts 354°
2026-05-05 08:24 48.35101 11.78239 1485 ft 11 kts 352°
2026-05-05 08:24 48.35182 11.78222 1478 ft 13 kts 335°
2026-05-05 08:25 48.35197 11.78094 1480 ft 14 kts 263°
2026-05-05 08:25 48.35187 11.77941 1488 ft 15 kts 264°
2026-05-05 08:25 48.35112 11.77859 1491 ft 17 kts 172°
2026-05-05 08:25 48.34993 11.77881 1482 ft 18 kts 174°
2026-05-05 08:26 48.34867 11.77889 1483 ft 15 kts 191°
2026-05-05 08:26 48.34762 11.77884 1491 ft 16 kts 172°
2026-05-05 08:26 48.34670 11.77940 1491 ft 15 kts 101°
2026-05-05 08:26 48.34679 11.78099 1491 ft 16 kts 84°
2026-05-05 08:27 48.34691 11.78272 1491 ft 17 kts 82°
2026-05-05 08:27 48.34707 11.78457 1491 ft 18 kts 82°
2026-05-05 08:27 48.34723 11.78654 1480 ft 20 kts 84°
2026-05-05 08:27 48.34737 11.78863 1486 ft 21 kts 83°
2026-05-05 08:28 48.34755 11.79081 1481 ft 22 kts 83°
2026-05-05 08:28 48.34773 11.79311 1482 ft 23 kts 84°
2026-05-05 08:28 48.34790 11.79552 1491 ft 24 kts 83°
2026-05-05 08:28 48.34811 11.79804 1483 ft 25 kts 83°
2026-05-05 08:29 48.34829 11.80039 1487 ft 17 kts 83°
2026-05-05 08:29 48.34802 11.80182 1484 ft 15 kts 130°
2026-05-05 08:29 48.34710 11.80242 1489 ft 16 kts 177°
2026-05-05 08:30 48.34495 11.80285 1489 ft 10 kts 174°
2026-05-05 08:30 48.34465 11.80265 1479 ft 3 kts 248°
2026-05-05 08:30 48.34464 11.80257 1491 ft 0 kts 264°
2026-05-05 08:30 48.34461 11.80211 1491 ft 22 kts 264°
2026-05-05 08:31 48.34414 11.79631 1486 ft 88 kts 266°
2026-05-05 08:31 48.34324 11.78453 1491 ft 138 kts 263°
2026-05-05 08:31 48.34198 11.76841 1498 ft 173 kts 263°
2026-05-05 08:31 48.34056 11.75030 2023 ft 171 kts 263°
2026-05-05 08:32 48.33827 11.73234 2526 ft 179 kts 253°
2026-05-05 08:32 48.33205 11.71614 3047 ft 182 kts 222°
2026-05-05 08:32 48.32040 11.70834 3451 ft 191 kts 188°
2026-05-05 08:32 48.30670 11.70796 3857 ft 204 kts 180°
2026-05-05 08:33 48.29206 11.70865 4384 ft 216 kts 174°
2026-05-05 08:33 48.27776 11.71674 4957 ft 231 kts 150°
2026-05-05 08:33 48.26375 11.73088 5374 ft 253 kts 147°
2026-05-05 08:33 48.24884 11.74644 5921 ft 267 kts 146°
2026-05-05 08:34 48.23360 11.76226 6665 ft 273 kts 146°
2026-05-05 08:34 48.21786 11.77842 7451 ft 275 kts 147°
2026-05-05 08:34 48.20194 11.79461 8253 ft 278 kts 147°
2026-05-05 08:34 48.18581 11.81083 9054 ft 280 kts 149°
2026-05-05 08:35 48.16792 11.82356 9829 ft 283 kts 161°
2026-05-05 08:35 48.14885 11.83314 10276 ft 298 kts 162°
2026-05-05 08:35 48.12891 11.84279 10553 ft 317 kts 163°
2026-05-05 08:35 48.10721 11.85336 10806 ft 336 kts 162°
2026-05-05 08:36 48.08441 11.86457 11052 ft 354 kts 162°
2026-05-05 08:36 48.06062 11.87630 11549 ft 363 kts 162°
2026-05-05 08:36 48.03650 11.88825 12207 ft 367 kts 162°
2026-05-05 08:36 48.01217 11.90033 12906 ft 370 kts 162°
2026-05-05 08:37 47.98755 11.91247 13611 ft 373 kts 162°
2026-05-05 08:37 47.96283 11.92467 14226 ft 376 kts 162°
2026-05-05 08:37 47.93784 11.93699 14810 ft 379 kts 162°
2026-05-05 08:37 47.91227 11.94701 15394 ft 381 kts 172°
2026-05-05 08:38 47.88573 11.94912 15995 ft 384 kts 181°
2026-05-05 08:38 47.85892 11.94846 16602 ft 387 kts 182°
2026-05-05 08:38 47.83187 11.94764 17205 ft 390 kts 181°
2026-05-05 08:38 47.80465 11.94690 17800 ft 393 kts 181°
2026-05-05 08:39 47.77717 11.94630 18361 ft 396 kts 181°
2026-05-05 08:39 47.74953 11.94573 18862 ft 399 kts 181°
2026-05-05 08:39 47.72166 11.94523 19351 ft 402 kts 181°
2026-05-05 08:39 47.69351 11.94471 19834 ft 405 kts 181°
2026-05-05 08:40 47.66522 11.94422 20320 ft 408 kts 181°
2026-05-05 08:40 47.63672 11.94371 20801 ft 412 kts 181°
2026-05-05 08:40 47.60796 11.94323 21258 ft 415 kts 181°
2026-05-05 08:40 47.57893 11.94278 21718 ft 419 kts 181°
2026-05-05 08:41 47.54965 11.94230 22171 ft 422 kts 182°
2026-05-05 08:41 47.52017 11.94174 22635 ft 425 kts 182°
2026-05-05 08:41 47.49049 11.94121 23089 ft 429 kts 182°
2026-05-05 08:41 47.46053 11.94069 23518 ft 432 kts 182°
2026-05-05 08:42 47.43044 11.93951 23905 ft 434 kts 186°
2026-05-05 08:42 47.40058 11.93449 24293 ft 435 kts 188°
2026-05-05 08:42 47.37037 11.92846 24704 ft 436 kts 189°
2026-05-05 08:42 47.34032 11.92218 25182 ft 436 kts 189°
2026-05-05 08:43 47.31021 11.91601 25562 ft 439 kts 189°
2026-05-05 08:43 47.27985 11.90990 25946 ft 441 kts 189°
2026-05-05 08:43 47.24940 11.90381 26364 ft 443 kts 189°
2026-05-05 08:43 47.21882 11.89771 26749 ft 444 kts 189°
2026-05-05 08:44 47.18817 11.89157 27122 ft 445 kts 189°
2026-05-05 08:44 47.15751 11.88546 27694 ft 442 kts 189°
2026-05-05 08:44 47.12715 11.87957 28241 ft 439 kts 189°
2026-05-05 08:44 47.09703 11.87367 28852 ft 434 kts 189°
2026-05-05 08:45 47.06728 11.86782 29392 ft 431 kts 189°
2026-05-05 08:45 47.03766 11.86199 29862 ft 429 kts 189°
2026-05-05 08:45 47.00821 11.85511 30252 ft 427 kts 193°
2026-05-05 08:45 46.97915 11.84604 30578 ft 427 kts 194°
2026-05-05 08:46 46.95054 11.83688 30912 ft 426 kts 194°
2026-05-05 08:46 46.92129 11.82753 31220 ft 425 kts 194°
2026-05-05 08:46 46.89235 11.81829 31514 ft 425 kts 194°
2026-05-05 08:46 46.86341 11.80912 31796 ft 425 kts 194°
2026-05-05 08:47 46.83495 11.80007 32110 ft 425 kts 193°
2026-05-05 08:47 46.80573 11.79082 32404 ft 424 kts 193°
2026-05-05 08:47 46.77728 11.78181 32650 ft 424 kts 193°
2026-05-05 08:47 46.74842 11.77271 32863 ft 425 kts 193°
2026-05-05 08:48 46.71946 11.76363 32990 ft 427 kts 193°
2026-05-05 08:48 46.66139 11.74528 32988 ft 427 kts 193°
2026-05-05 08:49 46.60309 11.72886 32971 ft 428 kts 187°
2026-05-05 08:49 46.54354 11.72478 32983 ft 429 kts 183°
2026-05-05 08:50 46.48403 11.72185 32987 ft 429 kts 184°
2026-05-05 08:50 46.42424 11.71854 32988 ft 429 kts 184°
2026-05-05 08:51 46.36466 11.71531 32993 ft 429 kts 184°
2026-05-05 08:51 46.30502 11.71214 33001 ft 428 kts 184°
2026-05-05 08:52 46.24548 11.70902 32993 ft 428 kts 184°
2026-05-05 08:52 46.18590 11.70587 33006 ft 428 kts 184°
2026-05-05 08:53 46.12638 11.70267 33008 ft 428 kts 184°
2026-05-05 08:53 46.06678 11.69950 33017 ft 429 kts 184°
2026-05-05 08:54 46.00723 11.69634 33014 ft 428 kts 184°
2026-05-05 08:54 45.94767 11.69311 33016 ft 425 kts 184°
2026-05-05 08:55 45.88867 11.68994 33035 ft 425 kts 184°
2026-05-05 08:55 45.82953 11.68682 33039 ft 425 kts 184°
2026-05-05 08:56 45.77049 11.68367 33045 ft 425 kts 184°
2026-05-05 08:56 45.71199 11.68056 33047 ft 422 kts 184°
2026-05-05 08:57 45.65327 11.67748 33030 ft 422 kts 184°
2026-05-05 08:57 45.59460 11.67373 33027 ft 422 kts 185°
2026-05-05 08:58 45.53603 11.66929 33039 ft 422 kts 185°
2026-05-05 08:58 45.47732 11.66502 33033 ft 422 kts 185°
2026-05-05 08:59 45.41866 11.66073 33024 ft 422 kts 185°
2026-05-05 08:59 45.36009 11.65652 33032 ft 422 kts 185°
2026-05-05 09:00 45.30152 11.65232 33034 ft 422 kts 185°
2026-05-05 09:00 45.24265 11.64805 33025 ft 425 kts 185°
2026-05-05 09:01 45.18358 11.64379 33038 ft 425 kts 185°
2026-05-05 09:01 45.12440 11.63950 33035 ft 426 kts 185°
2026-05-05 09:02 45.07523 11.63591 33029 ft 426 kts 185°
2026-05-05 09:02 45.00636 11.63078 33018 ft 426 kts 185°
2026-05-05 09:03 44.95673 11.62717 33001 ft 426 kts 185°
2026-05-05 09:03 44.89768 11.62281 33002 ft 425 kts 185°
2026-05-05 09:04 44.83870 11.61843 32992 ft 425 kts 185°
2026-05-05 09:04 44.77967 11.61361 32991 ft 425 kts 186°
2026-05-05 09:05 44.72063 11.60774 33004 ft 425 kts 186°
2026-05-05 09:05 44.66154 11.60201 33008 ft 426 kts 186°
2026-05-05 09:06 44.60239 11.59636 33017 ft 426 kts 186°
2026-05-05 09:06 44.54340 11.59074 33000 ft 429 kts 186°
2026-05-05 09:07 44.48391 11.58512 32998 ft 428 kts 186°
2026-05-05 09:07 44.42444 11.57944 33003 ft 428 kts 186°
2026-05-05 09:08 44.36493 11.57380 33003 ft 429 kts 187°
2026-05-05 09:08 44.30534 11.56814 33014 ft 429 kts 187°
2026-05-05 09:09 44.24536 11.56246 33032 ft 429 kts 187°
2026-05-05 09:09 44.18618 11.55681 33025 ft 429 kts 187°
2026-05-05 09:10 44.12656 11.55119 33028 ft 428 kts 187°
2026-05-05 09:10 44.06707 11.54558 33052 ft 429 kts 187°
2026-05-05 09:11 44.00744 11.54022 33036 ft 431 kts 185°
2026-05-05 09:11 43.94716 11.54400 33046 ft 435 kts 180°
2026-05-05 09:12 43.88680 11.54963 33046 ft 434 kts 180°
2026-05-05 09:12 43.82644 11.55506 33022 ft 435 kts 181°
2026-05-05 09:13 43.76629 11.54911 33044 ft 433 kts 194°
2026-05-05 09:13 43.70687 11.53450 33055 ft 434 kts 194°
2026-05-05 09:14 43.64741 11.52010 33051 ft 434 kts 194°
2026-05-05 09:14 43.58785 11.50599 33051 ft 434 kts 194°
2026-05-05 09:15 43.52830 11.49198 33049 ft 434 kts 194°
2026-05-05 09:15 43.46872 11.47799 33042 ft 434 kts 194°
2026-05-05 09:16 43.40913 11.46399 33034 ft 433 kts 195°
2026-05-05 09:16 43.34978 11.45007 33030 ft 433 kts 195°
2026-05-05 09:17 43.29034 11.43640 33027 ft 433 kts 195°
2026-05-05 09:17 43.23091 11.42255 33023 ft 433 kts 195°
2026-05-05 09:18 43.17152 11.40877 33029 ft 433 kts 195°
2026-05-05 09:18 43.11218 11.39504 33026 ft 432 kts 195°
2026-05-05 09:19 43.05332 11.38136 33022 ft 432 kts 195°
2026-05-05 09:19 42.99409 11.36764 33038 ft 432 kts 195°
2026-05-05 09:20 42.93489 11.35396 33042 ft 432 kts 195°
2026-05-05 09:20 42.87570 11.34031 33039 ft 432 kts 195°
2026-05-05 09:21 42.81655 11.32676 33034 ft 430 kts 195°
2026-05-05 09:21 42.75746 11.31321 33040 ft 431 kts 195°
2026-05-05 09:22 42.69844 11.29964 33039 ft 430 kts 195°
2026-05-05 09:22 42.63945 11.28596 33018 ft 429 kts 195°
2026-05-05 09:23 42.58120 11.27272 33027 ft 424 kts 195°
2026-05-05 09:23 42.52246 11.25921 33038 ft 430 kts 195°
2026-05-05 09:24 42.46338 11.24581 33012 ft 430 kts 195°
2026-05-05 09:24 42.40435 11.23245 33032 ft 430 kts 195°
2026-05-05 09:25 42.34533 11.21906 33032 ft 430 kts 195°
2026-05-05 09:25 42.28666 11.20586 33025 ft 423 kts 195°
2026-05-05 09:26 42.22854 11.19288 33034 ft 428 kts 195°
2026-05-05 09:26 42.16960 11.17958 33038 ft 430 kts 195°
2026-05-05 09:27 42.11066 11.16627 33023 ft 430 kts 195°
2026-05-05 09:27 42.05170 11.15297 33009 ft 429 kts 195°
2026-05-05 09:28 41.99312 11.13983 33018 ft 424 kts 195°
2026-05-05 09:28 41.93543 11.12695 33014 ft 422 kts 195°
2026-05-05 09:29 41.87694 11.11388 33024 ft 427 kts 195°
2026-05-05 09:29 41.81935 11.09888 33019 ft 420 kts 202°
2026-05-05 09:30 41.76836 11.06371 32626 ft 404 kts 220°
2026-05-05 09:30 41.74620 11.04152 32045 ft 402 kts 221°
2026-05-05 09:30 41.72401 11.01882 31348 ft 402 kts 221°
2026-05-05 09:30 41.70169 10.99629 30635 ft 402 kts 220°
2026-05-05 09:31 41.67928 10.97394 29893 ft 402 kts 220°
2026-05-05 09:31 41.65683 10.95158 29064 ft 402 kts 220°
2026-05-05 09:31 41.63444 10.92938 28354 ft 400 kts 220°
2026-05-05 09:31 41.61181 10.90700 27712 ft 405 kts 220°
2026-05-05 09:32 41.58927 10.88474 27062 ft 401 kts 220°
2026-05-05 09:32 41.56692 10.86267 26408 ft 398 kts 220°
2026-05-05 09:32 41.54470 10.84070 25768 ft 396 kts 220°
2026-05-05 09:32 41.52265 10.81892 25153 ft 393 kts 220°
2026-05-05 09:33 41.50071 10.79732 24540 ft 391 kts 220°
2026-05-05 09:33 41.47888 10.77585 23900 ft 390 kts 220°
2026-05-05 09:33 41.45708 10.75444 23202 ft 389 kts 219°
2026-05-05 09:33 41.43537 10.73311 22504 ft 387 kts 219°
2026-05-05 09:34 41.41376 10.71184 21813 ft 385 kts 219°
2026-05-05 09:34 41.39228 10.69076 21146 ft 383 kts 219°
2026-05-05 09:34 41.37086 10.66979 20517 ft 380 kts 219°
2026-05-05 09:34 41.34960 10.64903 19906 ft 378 kts 219°
2026-05-05 09:35 41.32852 10.62836 19334 ft 375 kts 219°
2026-05-05 09:35 41.28664 10.58739 18215 ft 372 kts 218°
2026-05-05 09:35 41.26578 10.56705 17604 ft 372 kts 218°
2026-05-05 09:36 41.24497 10.54674 17041 ft 371 kts 218°
2026-05-05 09:36 41.22419 10.52649 16462 ft 370 kts 218°
2026-05-05 09:36 41.20343 10.50626 15907 ft 369 kts 218°
2026-05-05 09:36 41.18274 10.48614 15382 ft 368 kts 218°
2026-05-05 09:37 41.16216 10.46616 14865 ft 366 kts 218°
2026-05-05 09:37 41.14158 10.44618 14335 ft 366 kts 218°
2026-05-05 09:37 41.12135 10.42652 13815 ft 365 kts 218°
2026-05-05 09:37 41.10083 10.40663 13238 ft 364 kts 218°
2026-05-05 09:38 41.08063 10.38705 12689 ft 356 kts 218°
2026-05-05 09:38 41.06088 10.36792 12187 ft 348 kts 218°
2026-05-05 09:38 41.04288 10.34705 11682 ft 340 kts 229°
2026-05-05 09:38 41.02797 10.32326 11302 ft 330 kts 232°
2026-05-05 09:39 41.01393 10.29999 11099 ft 316 kts 232°
2026-05-05 09:39 41.00056 10.27789 10927 ft 301 kts 232°
2026-05-05 09:39 40.98768 10.25680 10785 ft 287 kts 232°
2026-05-05 09:39 40.97541 10.23678 10591 ft 275 kts 232°
2026-05-05 09:40 40.96339 10.21717 10170 ft 274 kts 232°
2026-05-05 09:40 40.95145 10.19767 9739 ft 272 kts 232°
2026-05-05 09:40 40.93965 10.17839 9321 ft 268 kts 232°
2026-05-05 09:40 40.92939 10.15812 8942 ft 263 kts 246°
2026-05-05 09:41 40.92518 10.13470 8607 ft 263 kts 263°
2026-05-05 09:41 40.92396 10.11053 8275 ft 263 kts 265°
2026-05-05 09:41 40.92292 10.08647 7969 ft 262 kts 265°
2026-05-05 09:41 40.92178 10.06261 7677 ft 259 kts 264°
2026-05-05 09:42 40.92058 10.03884 7345 ft 259 kts 264°
2026-05-05 09:42 40.91932 10.01507 7000 ft 259 kts 264°
2026-05-05 09:42 40.91804 9.99130 6650 ft 259 kts 264°
2026-05-05 09:42 40.91675 9.96756 6296 ft 259 kts 264°
2026-05-05 09:43 40.91545 9.94378 5939 ft 258 kts 264°
2026-05-05 09:43 40.91439 9.92014 5601 ft 258 kts 268°
2026-05-05 09:43 40.91768 9.89698 5270 ft 259 kts 290°
2026-05-05 09:43 40.92818 9.87764 4952 ft 263 kts 315°
2026-05-05 09:44 40.94417 9.86597 4611 ft 267 kts 340°
2026-05-05 09:44 40.96224 9.86009 4276 ft 267 kts 342°
2026-05-05 09:44 40.98011 9.85342 3917 ft 267 kts 339°
2026-05-05 09:44 40.99758 9.84512 3555 ft 266 kts 334°
2026-05-05 09:45 41.01466 9.83508 3200 ft 265 kts 330°
2026-05-05 09:45 41.02946 9.82205 2997 ft 251 kts 309°
2026-05-05 09:45 41.03717 9.80257 2964 ft 227 kts 278°
2026-05-05 09:45 41.03677 9.78312 2951 ft 204 kts 254°
2026-05-05 09:46 41.03106 9.76635 2976 ft 200 kts 237°
2026-05-05 09:46 41.02288 9.75139 2989 ft 201 kts 233°
2026-05-05 09:46 41.01473 9.73750 3030 ft 180 kts 233°
2026-05-05 09:46 41.00727 9.72432 3027 ft 179 kts 234°
2026-05-05 09:47 40.99983 9.71105 3013 ft 179 kts 233°
2026-05-05 09:47 40.99279 9.69791 2929 ft 169 kts 235°
2026-05-05 09:47 40.98611 9.68519 2754 ft 167 kts 236°
2026-05-05 09:47 40.97969 9.67290 2532 ft 158 kts 236°
2026-05-05 09:48 40.97350 9.66100 2333 ft 159 kts 236°
2026-05-05 09:48 40.96724 9.64900 2127 ft 158 kts 236°
2026-05-05 09:48 40.96105 9.63711 1919 ft 157 kts 235°
2026-05-05 09:48 40.95479 9.62511 1713 ft 159 kts 235°
2026-05-05 09:49 40.94863 9.61328 1505 ft 155 kts 234°
2026-05-05 09:49 40.94467 9.60568 1399 ft 144 kts 234°
2026-05-05 09:49 40.93896 9.59472 1187 ft 143 kts 234°
2026-05-05 09:49 40.93340 9.58405 992 ft 143 kts 234°
2026-05-05 09:50 40.92773 9.57319 798 ft 144 kts 235°
2026-05-05 09:50 40.92192 9.56205 613 ft 145 kts 234°
2026-05-05 09:50 40.91624 9.55118 417 ft 145 kts 234°
2026-05-05 09:50 40.91054 9.54031 220 ft 144 kts 233°
2026-05-05 09:51 40.90484 9.52946 47 ft 141 kts 235°
2026-05-05 09:51 40.89977 9.51971 38 ft 103 kts 234°
2026-05-05 09:51 40.89734 9.51513 40 ft 32 kts 234°
2026-05-05 09:51 40.89629 9.51309 39 ft 13 kts 239°
2026-05-05 09:52 40.89608 9.51214 40 ft 11 kts 309°
2026-05-05 09:52 40.89651 9.51134 39 ft 5 kts 303°
2026-05-05 09:52 40.89685 9.51102 39 ft 7 kts 337°
2026-05-05 09:52 40.89736 9.51122 39 ft 9 kts 47°
2026-05-05 09:53 40.89777 9.51199 39 ft 11 kts 56°
2026-05-05 09:53 40.89824 9.51293 39 ft 13 kts 56°
2026-05-05 09:53 40.89880 9.51400 40 ft 15 kts 55°
2026-05-05 09:53 40.89934 9.51496 40 ft 11 kts 40°
2026-05-05 09:54 40.90012 9.51509 38 ft 11 kts 334°
2026-05-05 09:54 40.90074 9.51490 37 ft 10 kts 36°
2026-05-05 09:54 40.90120 9.51569 40 ft 11 kts 57°
2026-05-05 09:54 40.90157 9.51640 39 ft 9 kts 56°
2026-05-05 09:55 40.90177 9.51678 40 ft 2 kts 53°
2026-05-05 09:55 40.90177 9.51679 40 ft 0 kts 53°
2026-05-05 09:55 40.90180 9.51684 40 ft 2 kts 54°
2026-05-05 09:55 40.90205 9.51697 40 ft 6 kts 348°
2026-05-05 09:56 40.90239 9.51670 40 ft 4 kts 326°
2026-05-05 09:56 40.90245 9.51665 40 ft 0 kts 325°